�������l�o���
Date,Time,MP-1(��Sv/h),MP-2(��Sv/h),MP-3(��Sv/h),MP-4(��Sv/h),MP-5(��Sv/h),MP-6(��Sv/h),MP-7(��Sv/h),MP-8(��Sv/h),����,����(m/s),���J
2018/02/22,00:00,0.888,1.494,0.928,1.747,1.206,0.486,0.865,0.836,�k��,4.7,��
2018/02/22,00:10,0.888,1.493,0.926,1.747,1.206,0.487,0.866,0.836,�k��,3.5,��
2018/02/22,00:20,0.884,1.493,0.928,1.745,1.204,0.486,0.867,0.835,�k��,3.9,��
2018/02/22,00:30,0.887,1.492,0.929,1.745,1.206,0.486,0.865,0.836,�k�k��,3.9,��
2018/02/22,00:40,0.885,1.493,0.930,1.747,1.204,0.486,0.867,0.837,�k�k��,3.4,��
2018/02/22,00:50,0.885,1.491,0.926,1.746,1.205,0.486,0.866,0.836,�k��,3.6,��
2018/02/22,01:00,0.884,1.493,0.929,1.746,1.205,0.485,0.868,0.834,�k��,4.0,��
2018/02/22,01:10,0.886,1.492,0.926,1.747,1.204,0.487,0.866,0.834,�k��,3.9,��
2018/02/22,01:20,0.885,1.492,0.927,1.745,1.205,0.485,0.866,0.836,�k��,4.0,��
2018/02/22,01:30,0.887,1.491,0.930,1.746,1.204,0.486,0.865,0.835,�k��,4.2,��
2018/02/22,01:40,0.886,1.491,0.928,1.745,1.204,0.484,0.865,0.834,�k�k��,4.6,��
2018/02/22,01:50,0.886,1.493,0.931,1.746,1.204,0.485,0.866,0.835,�k��,4.9,��
2018/02/22,02:00,0.885,1.491,0.928,1.743,1.206,0.486,0.865,0.835,�k�k��,4.6,��
2018/02/22,02:10,0.885,1.491,0.928,1.744,1.203,0.485,0.868,0.834,�k�k��,4.8,��
2018/02/22,02:20,0.884,1.493,0.927,1.747,1.204,0.486,0.865,0.836,�k�k��,4.2,��
2018/02/22,02:30,0.882,1.490,0.926,1.745,1.205,0.485,0.867,0.835,�k�k��,4.3,��
2018/02/22,02:40,0.884,1.489,0.926,1.746,1.204,0.485,0.866,0.836,�k��,4.8,��
2018/02/22,02:50,0.883,1.493,0.928,1.744,1.202,0.485,0.866,0.837,�k�k��,5.9,��
2018/02/22,03:00,0.882,1.491,0.927,1.747,1.203,0.486,0.865,0.835,�k�k��,7.3,��
2018/02/22,03:10,0.886,1.492,0.928,1.744,1.202,0.484,0.866,0.836,�k�k��,6.2,��
2018/02/22,03:20,0.885,1.492,0.925,1.746,1.202,0.486,0.865,0.835,�k�k��,6.2,��
2018/02/22,03:30,0.882,1.490,0.924,1.746,1.199,0.484,0.866,0.834,�k�k��,6.2,��
2018/02/22,03:40,0.884,1.491,0.927,1.742,1.201,0.483,0.865,0.834,�k�k��,6.6,��
2018/02/22,03:50,0.883,1.489,0.927,1.745,1.200,0.484,0.866,0.835,�k�k��,7.3,��
2018/02/22,04:00,0.884,1.492,0.925,1.744,1.199,0.483,0.866,0.835,�k��,6.6,��
2018/02/22,04:10,0.882,1.493,0.924,1.746,1.201,0.485,0.865,0.835,�k��,5.4,��
2018/02/22,04:20,0.884,1.492,0.927,1.744,1.204,0.485,0.865,0.835,�k��,4.8,��
2018/02/22,04:30,0.881,1.490,0.926,1.747,1.203,0.485,0.867,0.834,�k��,5.5,��
2018/02/22,04:40,0.883,1.492,0.926,1.745,1.204,0.485,0.866,0.834,�k��,6.4,��
2018/02/22,04:50,0.884,1.491,0.925,1.743,1.206,0.483,0.864,0.834,�k�k��,6.7,��
2018/02/22,05:00,0.884,1.493,0.926,1.743,1.204,0.483,0.865,0.834,�k�k��,5.4,��
2018/02/22,05:10,0.885,1.490,0.925,1.743,1.202,0.485,0.865,0.837,�k��,5.0,��
2018/02/22,05:20,0.885,1.491,0.927,1.745,1.203,0.486,0.866,0.835,�k��,4.2,��
2018/02/22,05:30,0.884,1.490,0.925,1.743,1.202,0.484,0.864,0.834,�k��,4.6,��
2018/02/22,05:40,0.885,1.489,0.925,1.744,1.206,0.484,0.867,0.835,�k��,5.0,��
2018/02/22,05:50,0.883,1.491,0.927,1.742,1.204,0.485,0.864,0.835,�k��,4.7,��
2018/02/22,06:00,0.885,1.491,0.926,1.744,1.202,0.485,0.866,0.835,�k��,4.6,��
2018/02/22,06:10,0.883,1.491,0.926,1.746,1.203,0.484,0.866,0.834,�k��,4.3,��
2018/02/22,06:20,0.882,1.490,0.925,1.744,1.203,0.485,0.866,0.833,�k��,4.0,��
2018/02/22,06:30,0.883,1.491,0.926,1.745,1.203,0.485,0.865,0.833,�k��,4.2,��
2018/02/22,06:40,0.882,1.490,0.927,1.742,1.201,0.485,0.864,0.835,�k��,3.9,��
2018/02/22,06:50,0.883,1.490,0.927,1.746,1.201,0.484,0.866,0.834,���k��,4.1,��
2018/02/22,07:00,0.884,1.491,0.924,1.742,1.201,0.484,0.865,0.833,�k��,3.8,��
2018/02/22,07:10,0.883,1.492,0.926,1.742,1.203,0.484,0.865,0.835,�k��,4.6,��
2018/02/22,07:20,0.882,1.492,0.927,1.746,1.201,0.485,0.865,0.834,�k��,6.0,��
2018/02/22,07:30,0.883,1.490,0.926,1.746,1.203,0.484,0.866,0.836,�k��,6.7,��
2018/02/22,07:40,0.884,1.491,0.927,1.745,1.203,0.485,0.865,0.833,�k��,5.5,��
2018/02/22,07:50,0.884,1.488,0.926,1.742,1.204,0.485,0.867,0.835,�k��,5.3,��
2018/02/22,08:00,0.885,1.492,0.928,1.746,1.203,0.483,0.866,0.835,�k�k��,4.9,��
2018/02/22,08:10,0.885,1.489,0.927,1.743,1.203,0.484,0.865,0.834,�k��,4.3,��
2018/02/22,08:20,0.883,1.487,0.929,1.746,1.203,0.484,0.864,0.835,�k�k��,4.0,��
2018/02/22,08:30,0.884,1.485,0.928,1.742,1.206,0.485,0.865,0.834,�k��,4.1,��
2018/02/22,08:40,0.885,1.488,0.926,1.746,1.202,0.484,0.867,0.835,�k�k��,3.3,��
2018/02/22,08:50,0.886,1.489,0.927,1.746,1.202,0.486,0.866,0.835,�k�k��,3.6,��
2018/02/22,09:00,0.886,1.490,0.925,1.746,1.203,0.485,0.867,0.834,�k�k��,3.2,��
2018/02/22,09:10,0.886,1.489,0.927,1.743,1.203,0.484,0.865,0.837,�k,2.5,��
2018/02/22,09:20,0.887,1.491,0.927,1.745,1.205,0.484,0.866,0.834,�k�k��,2.6,��
2018/02/22,09:30,0.887,1.490,0.926,1.742,1.205,0.484,0.866,0.835,�k��,2.9,��
2018/02/22,09:40,0.886,1.490,0.926,1.745,1.204,0.485,0.866,0.835,�k�k��,3.2,��
2018/02/22,09:50,0.885,1.490,0.926,1.744,1.204,0.485,0.864,0.836,�k�k��,3.0,��
2018/02/22,10:00,0.887,1.488,0.926,1.745,1.205,0.484,0.866,0.835,�k�k��,3.8,��
2018/02/22,10:10,0.884,1.489,0.926,1.746,1.204,0.485,0.865,0.836,�k��,3.8,��
2018/02/22,10:20,0.888,1.487,0.929,1.746,1.206,0.484,0.864,0.834,�k�k��,3.7,��
2018/02/22,10:30,0.887,1.486,0.928,1.743,1.204,0.483,0.865,0.835,�k�k��,3.6,��
2018/02/22,10:40,0.884,1.487,0.927,1.746,1.207,0.485,0.864,0.836,�k��,3.8,��
2018/02/22,10:50,0.886,1.483,0.930,1.745,1.206,0.484,0.864,0.836,�k��,3.5,��
2018/02/22,11:00,0.886,1.487,0.927,1.749,1.207,0.485,0.864,0.835,�k��,3.9,��
2018/02/22,11:10,0.887,1.490,0.926,1.744,1.202,0.486,0.863,0.834,�k��,3.3,��
2018/02/22,11:20,0.884,1.487,0.929,1.745,1.206,0.485,0.864,0.835,�k��,3.8,��
2018/02/22,11:30,0.886,1.488,0.926,1.748,1.207,0.485,0.863,0.835,�k��,3.7,��
2018/02/22,11:40,0.885,1.493,0.929,1.745,1.205,0.486,0.867,0.835,�k��,3.3,��
2018/02/22,11:50,0.886,1.489,0.927,1.747,1.208,0.485,0.864,0.834,���k��,3.0,��
2018/02/22,12:00,0.887,1.493,0.926,1.748,1.207,0.486,0.864,0.835,���k��,2.9,��
2018/02/22,12:10,0.887,1.491,0.926,1.747,1.206,0.484,0.865,0.836,�k��,3.4,��
2018/02/22,12:20,0.889,1.489,0.930,1.746,1.206,0.484,0.865,0.837,���k��,2.9,��
2018/02/22,12:30,0.888,1.492,0.929,1.750,1.207,0.485,0.865,0.837,��,2.5,�L
2018/02/22,12:40,0.890,1.492,0.930,1.747,1.206,0.486,0.863,0.837,���k��,2.9,�L
2018/02/22,12:50,0.889,1.492,0.929,1.749,1.207,0.486,0.864,0.836,���쓌,4.0,�L
2018/02/22,13:00,0.890,1.495,0.931,1.748,1.208,0.486,0.865,0.836,��,2.6,�L
2018/02/22,13:10,0.888,1.490,0.928,1.748,1.209,0.485,0.865,0.834,�쓌,2.8,�L
2018/02/22,13:20,0.888,1.490,0.925,1.746,1.207,0.486,0.866,0.836,�쓌,2.6,��
2018/02/22,13:30,0.890,1.492,0.928,1.747,1.208,0.485,0.866,0.837,��,2.5,�L
2018/02/22,13:40,0.888,1.492,0.924,1.750,1.206,0.485,0.865,0.837,���쓌,2.8,��
2018/02/22,13:50,0.887,1.493,0.926,1.747,1.204,0.485,0.865,0.834,���쓌,3.2,��
2018/02/22,14:00,0.887,1.492,0.927,1.749,1.207,0.486,0.864,0.835,���쓌,3.1,��
2018/02/22,14:10,0.888,1.490,0.925,1.747,1.208,0.486,0.863,0.836,�쓌,2.9,��
2018/02/22,14:20,0.888,1.489,0.924,1.748,1.208,0.485,0.866,0.836,���쓌,2.2,��
2018/02/22,14:30,0.887,1.493,0.923,1.747,1.207,0.484,0.866,0.837,�쓌,3.9,��
2018/02/22,14:40,0.888,1.491,0.927,1.748,1.206,0.485,0.865,0.836,���쓌,3.1,��
2018/02/22,14:50,0.887,1.493,0.931,1.748,1.206,0.486,0.867,0.836,�쓌,2.5,��
2018/02/22,15:00,0.887,1.493,0.930,1.748,1.208,0.486,0.866,0.837,��,3.1,��
2018/02/22,15:10,0.887,1.493,0.931,1.750,1.186,0.487,0.865,0.835,�쓌,2.6,��
2018/02/22,15:20,0.886,1.493,0.929,1.749,1.173,0.485,0.866,0.834,�쓌,2.6,��
2018/02/22,15:30,0.889,1.492,0.929,1.748,1.178,0.485,0.866,0.834,���쓌,2.6,��
2018/02/22,15:40,0.887,1.493,0.931,1.749,1.182,0.485,0.866,0.835,�쓌,2.6,��
2018/02/22,15:50,0.887,1.495,0.928,1.750,1.175,0.486,0.865,0.834,�쓌,3.5,��
2018/02/22,16:00,0.885,1.493,0.929,1.749,1.187,0.485,0.867,0.834,��쓌,3.7,��
2018/02/22,16:10,0.888,1.493,0.930,1.750,1.196,0.486,0.868,0.836,�쓌,3.4,��
2018/02/22,16:20,0.887,1.491,0.931,1.746,1.184,0.487,0.868,0.835,��쓌,3.7,��
2018/02/22,16:30,0.884,1.493,0.930,1.749,1.191,0.484,0.868,0.835,��쓌,4.5,��
2018/02/22,16:40,0.883,1.495,0.928,1.747,1.190,0.486,0.868,0.835,��쓌,4.2,��
2018/02/22,16:50,0.886,1.491,0.929,1.751,1.197,0.485,0.868,0.836,��쓌,4.0,��
2018/02/22,17:00,0.885,1.495,0.929,1.745,1.194,0.485,0.869,0.835,��쓌,4.3,��
2018/02/22,17:10,0.882,1.494,0.931,1.749,1.205,0.486,0.867,0.835,��쓌,3.7,��
2018/02/22,17:20,0.882,1.492,0.929,1.748,1.206,0.486,0.866,0.834,��쓌,2.8,��
2018/02/22,17:30,0.884,1.494,0.930,1.746,1.210,0.485,0.868,0.835,�쓌,3.0,��
2018/02/22,17:40,0.883,1.494,0.929,1.746,1.206,0.486,0.868,0.837,��쓌,2.6,��
2018/02/22,17:50,0.887,1.494,0.928,1.746,1.208,0.486,0.867,0.834,��쓌,2.3,��
2018/02/22,18:00,0.885,1.494,0.929,1.750,1.207,0.486,0.867,0.835,��쓌,2.5,��
2018/02/22,18:10,0.884,1.491,0.928,1.749,1.206,0.485,0.867,0.834,��쓌,2.3,��
2018/02/22,18:20,0.885,1.492,0.930,1.748,1.203,0.485,0.867,0.835,��쓌,3.4,��
2018/02/22,18:30,0.884,1.494,0.930,1.749,1.208,0.486,0.868,0.835,��쐼,2.6,��
2018/02/22,18:40,0.885,1.494,0.930,1.748,1.205,0.485,0.868,0.835,��쐼,2.0,��
2018/02/22,18:50,0.885,1.492,0.929,1.745,1.206,0.486,0.866,0.832,�쐼,2.6,��
2018/02/22,19:00,0.883,1.491,0.931,1.750,1.207,0.485,0.866,0.834,�쐼,3.4,��
2018/02/22,19:10,0.883,1.494,0.929,1.747,1.205,0.485,0.867,0.835,��쐼,3.2,�L
2018/02/22,19:20,0.886,1.494,0.929,1.748,1.206,0.485,0.866,0.833,��쐼,2.6,��
2018/02/22,19:30,0.885,1.495,0.930,1.748,1.206,0.485,0.867,0.836,�쐼,3.3,��
2018/02/22,19:40,0.882,1.492,0.929,1.747,1.208,0.485,0.865,0.836,�쐼,3.3,��
2018/02/22,19:50,0.883,1.495,0.930,1.747,1.206,0.485,0.867,0.834,��쐼,2.8,��
2018/02/22,20:00,0.887,1.494,0.929,1.748,1.205,0.485,0.868,0.835,��쐼,3.3,��
2018/02/22,20:10,0.886,1.493,0.929,1.746,1.207,0.483,0.868,0.837,��쐼,2.8,�L
2018/02/22,20:20,0.883,1.493,0.929,1.749,1.207,0.485,0.868,0.835,��쐼,2.3,��
2018/02/22,20:30,0.885,1.494,0.929,1.747,1.208,0.485,0.868,0.836,��쐼,2.3,��
2018/02/22,20:40,0.886,1.493,0.932,1.749,1.205,0.486,0.867,0.835,�쐼,2.5,��
2018/02/22,20:50,0.884,1.495,0.928,1.747,1.205,0.485,0.867,0.836,�쐼,1.9,��
2018/02/22,21:00,0.886,1.493,0.932,1.745,1.207,0.485,0.868,0.836,�쐼,1.5,��
2018/02/22,21:10,0.886,1.492,0.930,1.748,1.208,0.485,0.867,0.835,��쐼,1.7,��
2018/02/22,21:20,0.886,1.493,0.930,1.746,1.206,0.486,0.867,0.835,�쐼,2.0,��
2018/02/22,21:30,0.884,1.494,0.930,1.747,1.205,0.485,0.866,0.836,���쐼,2.6,��
2018/02/22,21:40,0.886,1.493,0.931,1.748,1.208,0.484,0.868,0.834,���쐼,2.3,��
2018/02/22,21:50,0.884,1.493,0.931,1.746,1.205,0.487,0.865,0.836,�쐼,2.6,��
2018/02/22,22:00,0.884,1.493,0.930,1.747,1.206,0.485,0.868,0.836,���쐼,2.5,��
2018/02/22,22:10,0.886,1.494,0.930,1.747,1.207,0.486,0.869,0.837,�쐼,2.3,��
2018/02/22,22:20,0.886,1.496,0.930,1.747,1.207,0.485,0.866,0.833,�쐼,2.6,�L
2018/02/22,22:30,0.888,1.493,0.930,1.749,1.208,0.486,0.867,0.836,���쐼,3.6,�L
2018/02/22,22:40,0.884,1.492,0.930,1.745,1.207,0.486,0.867,0.836,�쐼,3.5,�L
2018/02/22,22:50,0.885,1.495,0.931,1.746,1.206,0.486,0.868,0.835,���쐼,3.7,�L
2018/02/22,23:00,0.885,1.489,0.931,1.747,1.208,0.485,0.869,0.836,���쐼,2.6,�L
2018/02/22,23:10,0.886,1.492,0.931,1.747,1.204,0.485,0.867,0.836,���쐼,2.0,�L
2018/02/22,23:20,0.887,1.493,0.930,1.746,1.208,0.486,0.868,0.834,�쐼,2.3,�L
2018/02/22,23:30,0.885,1.492,0.931,1.747,1.206,0.488,0.868,0.834,���쐼,2.0,�L
2018/02/22,23:40,0.886,1.493,0.930,1.746,1.206,0.487,0.866,0.836,�쐼,1.9,��
2018/02/22,23:50,0.885,1.493,0.932,1.745,1.205,0.486,0.866,0.835,�쐼,2.0,��
